Weather History for Iowa City, IA

Change the Weather History Date:

Saturday, November 23, 2013

  Actual Average Record
Temperature  
Mean Temperature 17 °F 35 °F  
Max Temperature 23 °F 43 °F 67 °F (1966)
Min Temperature 10 °F 27 °F 8 °F (1970)
Degree Days  
Heating Degree Days 48 30  
Month to date heating degree days 597 558  
Since 1 July heating degree days 1088 1083  
Cooling Degree Days 0 0  
Month to date cooling degree days 0 0  
Year to date cooling degree days 1064 912  
Moisture  
Dew Point 7 °F    
Average Humidity 63    
Maximum Humidity 80    
Minimum Humidity 45    
Precipitation  
Precipitation 0.00 in 0.07 in 1.28 in (2003)
Month to date precipitation 1.02 1.84  
Year to date precipitation 34.42 34.25  
Sea Level Pressure  
Sea Level Pressure 30.75 in    
Wind  
Wind Speed 12 mph (NW)    
Max Wind Speed 23 mph    
Max Gust Speed 28 mph    
Visibility 10 miles    
Events      
T = Trace of Precipitation, MM = Missing Value Source: NWS Daily Summary

Daily Weather History Graph

Daily Weather History Graph

Search for Another Location

Airport:

Trip Planner

Search our weather history database for the weather conditions in past years. The results will help you decide how hot, cold, wet, or windy it might be!

Date:

Astronomy

Nov. 23, 2013 Rise Set
Actual Time 7:04 AM CST 4:40 PM CST
Civil Twilight 6:34 AM CST 5:10 PM CST
Nautical Twilight 6:00 AM CST 5:44 PM CST
Astronomical Twilight 5:27 AM CST 6:17 PM CST
Moon 10:10 PM CST (11/23) 11:20 AM CST (11/23)
Length of Visible Light 10h 35m
Length of Day
9h 35m
Waning Gibbous, 69% of the Moon is Illuminated
Nov 23
Waning Gibbous
Nov 25
Last Quarter
Dec 2
New
Dec 9
First Quarter
Dec 17
Full

Hourly Weather History & Observations

Time (CST) Temp. Windchill Dew Point Humidity Pressure Visibility Wind Dir Wind Speed Gust Speed Precip Events Conditions
12:52 AM 19.0 °F 11.1 °F 12.9 °F 77% 30.58 in 10.0 mi WNW 5.8 mph - N/A   Clear
1:52 AM 19.0 °F 10.0 °F 12.9 °F 77% 30.60 in 10.0 mi West 6.9 mph - N/A   Clear
2:52 AM 21.0 °F 9.9 °F 14.0 °F 74% 30.61 in 10.0 mi NW 10.4 mph - N/A   Clear
3:52 AM 21.0 °F 11.4 °F 14.0 °F 74% 30.63 in 10.0 mi NW 8.1 mph - N/A   Clear
4:52 AM 19.9 °F 9.3 °F 12.9 °F 74% 30.64 in 10.0 mi NW 9.2 mph - N/A   Clear
5:52 AM 19.0 °F 5.0 °F 12.0 °F 74% 30.66 in 10.0 mi NW 15.0 mph 21.9 mph N/A   Clear
6:52 AM 17.1 °F 3.6 °F 8.1 °F 68% 30.69 in 10.0 mi NNW 12.7 mph 23.0 mph N/A   Clear
7:52 AM 15.1 °F -0.6 °F 6.1 °F 68% 30.73 in 10.0 mi NW 16.1 mph 20.7 mph N/A   Clear
8:52 AM 16.0 °F 0.6 °F 3.9 °F 59% 30.76 in 10.0 mi NNW 16.1 mph 26.5 mph N/A   Clear
9:52 AM 17.1 °F 0.6 °F 3.9 °F 56% 30.79 in 10.0 mi NNW 19.6 mph 24.2 mph N/A   Clear
10:52 AM 19.0 °F 3.6 °F 5.0 °F 54% 30.79 in 10.0 mi NW 18.4 mph 23.0 mph N/A   Clear
11:52 AM 19.9 °F 6.2 °F 5.0 °F 52% 30.79 in 10.0 mi North 15.0 mph 21.9 mph N/A   Clear
12:52 PM 21.9 °F 7.8 °F 5.0 °F 48% 30.79 in 10.0 mi NNW 17.3 mph 23.0 mph N/A   Clear
1:52 PM 21.9 °F 8.7 °F 3.9 °F 46% 30.79 in 10.0 mi NNW 15.0 mph 23.0 mph N/A   Clear
2:52 PM 21.9 °F 8.2 °F 5.0 °F 48% 30.79 in 10.0 mi NNW 16.1 mph 21.9 mph N/A   Clear
3:52 PM 21.0 °F 8.6 °F 5.0 °F 50% 30.80 in 10.0 mi NW 12.7 mph - N/A   Clear
4:52 PM 19.0 °F 5.6 °F 6.1 °F 57% 30.81 in 10.0 mi NW 13.8 mph - N/A   Clear
5:52 PM 17.1 °F 5.8 °F 6.1 °F 62% 30.82 in 10.0 mi NW 9.2 mph - N/A   Clear
6:52 PM 16.0 °F 6.3 °F 7.0 °F 68% 30.82 in 10.0 mi NW 6.9 mph - N/A   Clear
7:52 PM 15.1 °F 4.2 °F 6.1 °F 68% 30.84 in 10.0 mi NNW 8.1 mph - N/A   Clear
8:52 PM 15.1 °F 4.2 °F 5.0 °F 64% 30.82 in 10.0 mi NNW 8.1 mph - N/A   Clear
9:52 PM 14.0 °F 3.9 °F 3.9 °F 64% 30.81 in 10.0 mi North 6.9 mph - N/A   Clear
10:52 PM 12.0 °F 2.7 °F 5.0 °F 73% 30.82 in 10.0 mi WNW 5.8 mph - N/A   Clear
11:52 PM 10.9 °F 2.9 °F 5.0 °F 77% 30.82 in 10.0 mi WNW 4.6 mph - N/A   Clear